Miscellaneous Local Product
Issued by NWS Hastings, NE

Home | Current Version | Previous Version | Graphics & Text | Print | Product List | Glossary On
Versions: 1 2 3 4 5 6 7 8 9 10 11 12 13 14 15 16 17 18 19 20 21 22 23 24 25 26 27 28 29 30 31 32 33 34 35 36 37 38 39 40 41 42 43 44 45 46 47 48 49 50
000
AXUS43 KGID 141702
MISGRI

GID CWA HOURLY WEATHER ROUNDUP
NATIONAL WEATHER SERVICE HASTINGS NE
1200 PM CDT MON APR 14 2014

NOTE: "FAIR" INDICATES FEW OR NO CLOUDS BELOW 12,000 FEET WITH NO
SIGNIFICANT WEATHER AND/OR OBSTRUCTIONS TO VISIBILITY.

...SOUTH CENTRAL NEBRASKA...

CITY           SKY/WX    TMP DP  RH WIND       PRES   REMARKS
GRAND ISLAND   MOSUNNY   31  18  58 NW14      30.26S WCI  21
HASTINGS       PTSUNNY   32  19  58 NW15      30.25S WCI  22
ORD            SUNNY     36  19  50 W13       30.21F WCI  27
YORK           CLOUDY    30  18  59 N13G22    30.25R WCI  20
AURORA         PTSUNNY   31  20  63 NW16      30.25S WCI  20
LEXINGTON      SUNNY     35  23  62 NW12      30.25F WCI  26
HOLDREGE       MOSUNNY   32  21  64 NW10      30.26F WCI  23
HEBRON         CLOUDY    35  19  54 N15G24    30.26R WCI  25

...NEBRASKA PANHANDLE...

CITY           SKY/WX    TMP DP  RH WIND       PRES   REMARKS
CHADRON        SUNNY     36  23  59 W21G28    30.23S WCI  25
ALLIANCE       SUNNY     34  21  59 W24       30.21S WCI  21
SCOTTSBLUFF    SUNNY     33  21  61 W18       30.26F WCI  22
SIDNEY         SUNNY     31  17  56 NW23      30.26S WCI  18

...WESTERN AND NORTH CENTRAL NEBRASKA...

CITY           SKY/WX    TMP DP  RH WIND       PRES   REMARKS
VALENTINE      PTSUNNY   38  21  50 NW17G23   30.16F WCI  28
AINSWORTH      SUNNY     39  22  50 NW17G24   30.16F WCI  30
ONEILL         SUNNY     33  15  47 NW3       30.20F
BROKEN BOW     SUNNY     37  22  54 W14       30.20F WCI  28
IMPERIAL       SUNNY     33  21  61 NW16      30.28S WCI  23
NORTH PLATTE   SUNNY     40  22  48 NW22G28   30.23F WCI  30
MCCOOK         SUNNY     35  23  61 W17       30.29S WCI  25

...EASTERN NEBRASKA...

CITY           SKY/WX    TMP DP  RH WIND       PRES   REMARKS
NORFOLK        PTSUNNY   31  15  52 NW10      30.21S WCI  22
SO SIOUX CITY  CLOUDY    33  15  47 NW15      30.20R WCI  23
TEKAMAH        CLOUDY    32  19  58 NW17      30.21R WCI  21
COLUMBUS       CLOUDY    30  16  55 NW15      30.24R WCI  19
ALBION         MOSUNNY   31  15  51 NW12      30.23S WCI  22
OMAHA EPPLEY   CLOUDY    32  18  56 N16       30.20R WCI  21
OFFUTT AFB     CLOUDY    33  16  50 NW15      30.19R WCI  22
MILLARD        CLOUDY    32  16  52 NW14G22   30.20R WCI  22
LINCOLN        CLOUDY    35  17  47 N18       30.24R WCI  24
NEBRASKA CITY  CLOUDY    31  21  64 N16G22    30.18R WCI  20
BEATRICE       CLOUDY    34  21  58 NW18      30.23R WCI  23
FALLS CITY     CLOUDY    33  20  58 NW17      30.18R WCI  22

...NORTHERN KANSAS...

CITY           SKY/WX    TMP DP  RH WIND       PRES   REMARKS
GOODLAND       MOSUNNY   34  24  67 NW22      30.30S WCI  22
HILL CITY      MOSUNNY   39  16  39 N18G26    30.31R WCI  30
PHILLIPSBURG   SUNNY     37  19  48 NW15G23   30.29F WCI  28
SMITH CENTER   SUNNY     36  19  51 NW20      30.29R WCI  25
BELOIT         SUNNY     39  12  33 N21G28    30.26F WCI  29
HAYS           PTSUNNY   41  12  30 N28G35    30.28S
RUSSELL        MOSUNNY   40  12  32 N24       30.26S WCI  29
CONCORDIA      CLOUDY    38  15  39 N21G30    30.25R WCI  28
SALINA         PTSUNNY   41  15  35 N20G36    30.25R
TOPEKA         CLOUDY    35  21  56 N15G26    30.18R WCI  25



USA.gov is the U.S. government's official web portal to all federal, state and local government web resources and services.